SCP
0 0 0 0 0 0 0 0 0 0 0 0 0 0 0 0 0 0 0 0 0 0 0 0 0 0 0 0 0 0 0 0 0 0 0 0 0 0 0 0 0 0 0
0 0 0 0 0 0 0 0 0 0 0 0 0 0 0 0 0 0 0 0 0 0 0 0 0 0 0 0 0 0 0 0 0 0 0 0 0 0 0 0 0 0 0
0 0 0 0 0 0 0 0 0 0 0 0 0 0 0 0 0 0 0 0 0 0 0 0 0 0 0 0 0 0 0 0 0 0 0 0 0 0 0 0 0 0 0
0 0 0 0 0 0 0 0 0 0 0 0 0 0 0 0 0 0 0 0 0 0 0 0 0 0 0 0 0 0 0 0 0 0 0 0 0 0 0 0 0 0 0
0 0 0 0 0 0 0 0 0 0 0 0 0 0 0 0 0 0 0 0 0 0 0 -0 -0 -0 0 0 0 0 0 0 0 0 0 0 0 0 0 0 -0 0 0
0 0 0 0 0 0 0 0 0 0 0 0 0 0 0 0 0 0 0 0 0 0 0 0 0 0 0 0 0 0 0 0 0 0 0 0 0 0 0 0 0 0 0
0 0 0 0 0 0 0 0 0 0 0 0 0 0 0 0 0 0 0 0 0 0 0 0 0 0 0 0 0 0 0 0 0 0 0 0 0 0 0 0 0 0 0
0 0 0 0 0 0 0 0 0 0 0 0 0 0 0 0 0 0 0 0 0 0 0 0 0 0 0 0 0 0 0 0 0 0 0 0 0 0 0 0 0 0 0
0 0 0 0 0 0 0 0 0 0 0 0 0 0 0 0 0 0 0 0 0 0 0 0 0 0 0 0 0 0 0 0 0 0 0 0 0 0 0 0 0 0 0
0 0 0 0 0 0 -0 0 0 0 0 0 0 0 0 0 0 0 0 0 0 0 0 0 0 0 0 0 0 0 0 0 0 0 0 0 0 0 0 0 0 -0 -0
0 0 0 0 0 0 0 0 0 0 0 0 0 0 0 0 0 0 0 0 0 0 0 0 0 0 0 0 0 0 0 0 0 0 0 0 0 0 0 0 -0 -0 -0
0 0 0 0 0 0 -0 0 0 0 0 0 0 0 0 0 0 0 0 0 0 0 0 0 0 0 0 0 0 0 0 0 0 0 0 0 0 0 0 0 -0 -0 -0
0 0 0 0 -0 0 0 0 0 0 0 0 0 0 0 0 0 0 -0 0 0 0 0 0 0 0 0 0 0 0 0 0 0 0 0 0 0 0 -0 -0 -0 -0 -0
0 0 0 0 0 0 0 0 0 0 0 0 0 0 0 0 0 0 -0 -0 0 0 0 0 0 0 0 0 0 0 0 0 0 0 0 0 -0 -0 -0 -0 -0 -0 -0
0 0 0 0 0 0 0 0 0 0 0 0 0 0 0 0 0 0 0 0 0 0 0 0 0 0 0 0 0 0 0 0 0 0 0 0 -0 -0 -0 -0 -0 -0 0
0 0 0 0 0 0 0 0 0 0 0 0 0 0 0 0 0 0 0 0 0 0 0 0 0 0 0 0 0 0 0 0 0 0 0 -0 -0 -0 -0 -0 -0 0 0
0 0 0 0 0 -0 0 0 0 0 0 0 0 0 0 0 0 0 0 0 0 0 0 0 0 0 0 0 0 0 0 0 0 0 0 -0 -0 -0 -0 -0 -0 0 0
0 0 0 0 0 -0 0 0 0 -0 0 0 0 0 0 0 0 0 0 0 0 0 0 0 0 0 0 0 0 0 0 -0 -0 0 -0 -0 -0 -0 -0 -0 0 0 0
0 0 0 0 0 0 0 0 0 0 0 0 0 0 0 0 0 0 0 0 -0 -0 -0 0 0 0 0 0 0 0 0 0 0 -0 0 -0 -0 -0 0 0 0 0 0
0 0 0 0 0 0 0 0 0 0 0 0 0 0 0 0 0 0 0 -0 -0 -0 -0 -0 0 0 0 0 0 0 0 0 0 0 0 0 -0 -0 0 0 0 0 0
0 0 0 0 0 0 0 0 0 0 0 0 0 0 0 0 -0 0 0 -0 -0 -0 -0 0 0 0 0 0 0 0 0 0 0 -0 0 0 0 0 0 0 0 0 0
0 0 0 0 0 0 -0 -0 0 0 0 0 0 0 0 0 0 0 -0 -0 -0 -0 -0 -0 0 -0 -0 0 0 0 0 -0 -0 -0 0 0 0 0 0 0 0 0 0
0 0 0 0 0 0 0 0 0 0 0 0 0 0 0 0 0 0 -0 -0 -0 0 -0 -0 -0 -0 0 -0 -0 -0 0 0 0 0 0 0 0 0 0 0 0 0 0
0 0 0 0 0 0 -0 0 0 0 0 0 0 0 0 0 0 0 0 0 0 0 0 0 0 0 0 0 0 0 0 0 0 0 0 0 0 0 0 0 0 0 0
0 0 0 0 0 0 0 0 0 0 0 0 0 0 0 0 0 0 0 0 0 0 0 0 0 0 0 0 0 0 0 0 0 0 0 0 0 0 0 0 0 0 0
0 0 0 0 0 -0 -0 -0 0 0 0 0 0 0 0 0 0 0 0 0 0 0 0 0 0 0 0 0 0 0 0 0 0 0 0 0 0 0 0 0 0 0 0
Wind_Speed_500mb
33 30 29 23 24 22 39 57 61 50 47 47 47 37 27 24 22 21 20 20 20 22 21 12 3 5 8 10 7 5 5 15 22 31 28 30 36 40 41 38 35 31 30
28 27 22 29 25 29 37 39 41 47 43 40 47 38 29 22 22 24 22 24 23 19 15 8 3 2 6 9 13 10 8 15 26 27 29 34 36 38 38 38 38 33 33
27 35 24 24 45 31 24 33 30 41 41 31 48 48 29 25 23 26 27 24 21 16 12 9 10 10 13 15 9 7 10 19 27 28 28 34 37 36 40 38 31 29 36
22 20 29 25 25 33 37 37 35 52 46 48 52 46 38 34 29 29 26 22 18 15 11 6 4 4 8 4 7 13 17 19 21 29 29 32 35 34 31 34 37 43 41
20 17 19 20 28 24 32 48 54 52 55 61 56 46 45 39 35 31 28 23 17 14 11 6 9 10 12 19 14 13 19 27 30 32 31 31 31 29 31 33 36 35 32
20 26 18 18 24 29 37 38 46 65 54 58 59 54 45 42 36 33 26 21 16 13 11 8 5 5 7 3 8 6 19 26 31 27 24 25 27 24 29 31 26 29 29
17 23 17 18 24 31 33 49 30 74 67 67 66 53 43 42 37 34 28 21 16 13 14 12 8 2 3 2 5 12 17 23 24 21 17 23 21 24 21 22 25 24 22
14 17 19 20 25 38 21 46 40 48 57 75 69 49 32 36 39 36 34 25 18 16 21 10 10 5 4 7 10 13 17 19 18 14 15 20 22 21 18 15 17 20 19
10 15 17 24 25 33 30 45 36 41 67 74 69 35 23 13 39 32 37 27 28 24 22 14 9 7 3 8 16 20 17 14 11 10 11 15 17 13 9 12 18 24 23
13 18 18 17 34 24 43 41 37 40 52 70 61 49 29 39 24 19 31 35 31 23 20 14 12 8 7 11 16 16 13 10 10 10 7 8 14 12 12 13 15 15 22
15 9 19 12 34 40 50 46 56 48 46 66 64 50 35 48 29 36 35 34 29 25 21 17 12 13 13 13 15 11 10 8 13 13 7 8 15 11 7 10 12 14 27
8 14 13 20 39 54 57 50 57 56 60 55 55 50 45 40 40 23 24 36 30 25 24 20 14 15 12 13 11 7 4 9 11 9 8 9 14 11 5 8 16 19 24
12 7 11 21 46 48 59 51 59 47 42 53 54 66 44 28 27 19 18 30 24 23 21 16 13 12 13 12 8 6 6 9 10 10 6 5 10 9 5 8 15 18 22
9 10 10 22 45 47 53 59 48 46 38 43 46 60 52 37 24 13 14 15 16 13 17 12 15 17 14 11 11 11 10 4 14 9 2 6 10 8 2 8 12 17 23
9 8 8 23 41 41 52 46 49 47 38 38 43 46 58 45 27 19 14 14 9 11 17 19 16 12 14 15 15 10 8 4 7 7 3 1 3 7 6 4 9 17 23
4 7 8 32 46 46 48 44 37 39 40 50 50 44 50 44 34 28 18 24 20 16 11 16 16 17 21 17 14 12 7 5 7 9 5 2 7 9 8 4 8 14 19
6 6 20 37 37 45 40 41 33 30 45 41 38 37 38 29 38 29 24 22 20 20 15 19 21 23 20 19 18 13 10 11 8 7 10 9 15 13 9 3 3 9 17
19 17 23 37 39 41 41 42 32 31 37 34 37 38 35 38 34 33 30 20 20 20 20 19 20 23 22 24 19 21 17 14 12 13 13 12 14 15 12 7 2 9 10
24 30 31 36 28 34 32 36 29 26 30 27 34 35 33 32 26 37 27 21 17 17 16 17 18 23 25 26 26 27 22 19 16 16 11 13 11 16 16 9 4 8 9
28 35 47 45 39 41 35 34 29 26 24 25 27 27 22 26 25 26 28 20 16 13 13 13 14 15 24 25 29 29 24 21 20 19 17 15 13 13 14 12 11 11 10
28 32 40 42 33 40 36 36 31 26 27 27 25 28 26 24 22 20 19 18 16 13 12 14 16 16 19 27 28 27 26 24 24 26 23 21 19 16 17 18 16 15 12
31 31 30 31 32 34 26 24 21 31 26 21 15 22 23 21 18 16 13 15 17 16 15 15 15 16 16 18 24 25 31 33 32 30 30 29 25 23 22 19 18 16 14
34 37 39 33 28 23 15 16 13 17 16 19 20 18 19 14 14 13 12 11 12 12 12 15 19 21 20 21 25 30 37 36 36 29 24 30 30 27 27 22 18 17 16
40 40 38 35 31 32 28 24 20 23 26 22 19 17 13 10 9 8 8 9 10 11 14 19 20 22 24 26 30 29 27 35 37 38 33 32 29 31 28 26 22 19 18
35 33 32 28 22 23 26 25 24 25 24 24 22 21 19 16 15 13 10 10 11 14 16 19 22 24 26 28 30 32 36 42 45 44 40 35 33 31 31 29 29 27 22
24 21 17 14 11 15 16 18 17 17 18 17 15 12 10 9 9 9 13 16 18 21 23 24 26 26 30 32 31 33 37 44 47 39 40 42 36 33 20 28 35 36 32
Wind_Direction_500mb
246 243 236 214 222 219 220 223 205 198 191 173 166 164 168 179 175 157 161 167 156 153 154 157 126 11 3 333 352 85 57 11 358 351 357 351 348 347 348 355 0 8 6
245 242 237 216 196 180 174 184 180 181 178 182 162 164 169 169 180 169 156 162 159 167 169 182 204 53 31 90 124 112 3 349 346 357 354 348 350 354 4 11 14 13 25
242 233 230 238 225 243 243 215 172 179 184 180 180 164 162 168 169 167 163 157 157 158 151 157 142 126 99 82 72 315 320 337 344 351 354 357 354 12 20 18 19 23 47
231 225 225 235 230 238 240 216 216 207 200 199 178 168 169 168 167 163 155 156 149 145 149 172 263 257 225 150 37 355 349 349 344 348 358 360 5 32 23 33 36 56 48
224 214 200 208 212 233 229 225 209 203 188 175 166 171 176 167 167 156 158 157 155 152 157 200 270 265 251 238 227 332 345 352 349 350 0 5 36 38 41 37 46 44 38
225 211 198 207 208 211 221 203 199 203 186 181 170 179 172 173 168 166 164 165 166 167 186 199 268 253 242 204 194 317 345 338 334 355 3 23 41 36 47 46 52 32 38
227 230 205 198 203 199 247 217 206 188 191 178 176 177 175 175 170 171 174 168 184 206 239 201 288 226 323 53 47 349 329 317 326 351 11 39 44 64 63 59 48 27 36
221 235 219 200 195 197 218 198 196 182 185 176 174 161 143 159 178 179 176 180 189 204 190 210 287 248 327 44 355 317 312 316 337 4 19 44 51 51 63 54 29 27 26
218 227 231 209 193 189 207 199 175 172 178 178 180 169 146 159 153 161 173 184 194 200 203 236 231 248 312 329 317 320 324 332 351 3 36 53 68 55 47 43 35 36 49
198 220 226 225 193 196 209 202 175 183 191 178 176 180 177 175 160 153 173 181 186 198 214 241 242 260 275 308 316 333 344 1 356 8 12 65 96 69 63 45 38 46 39
190 223 223 212 191 205 201 192 196 201 196 182 188 177 174 179 175 174 183 193 201 208 229 233 228 243 267 310 309 326 355 19 2 354 344 112 113 109 90 62 54 60 50
168 209 239 242 196 208 200 193 201 206 190 196 198 193 188 183 189 184 181 191 203 215 224 229 236 255 274 291 289 318 335 350 344 330 351 97 123 131 125 74 66 64 40
185 212 278 236 205 201 195 199 204 197 204 200 203 202 192 191 189 180 175 169 186 206 217 230 234 243 255 256 267 292 276 338 328 325 22 125 141 165 176 78 54 40 25
213 244 282 211 200 193 192 198 207 209 209 217 208 196 198 201 175 174 182 180 164 189 212 223 234 244 241 240 238 250 267 342 344 333 305 170 176 174 134 55 44 33 27
245 307 302 186 184 181 182 190 199 201 198 206 202 208 207 214 211 214 209 219 235 221 235 238 226 254 220 231 246 248 245 354 310 296 263 212 195 186 128 95 42 31 31
315 299 186 168 160 170 180 181 192 199 208 223 203 200 211 209 210 214 225 241 242 239 241 217 228 230 216 221 230 240 246 296 293 280 277 217 186 162 169 131 43 29 32
23 75 154 156 167 170 172 178 185 195 200 189 188 193 196 216 211 213 230 230 230 250 244 245 231 221 219 227 226 216 231 237 260 268 265 233 190 180 192 169 37 24 26
56 89 143 146 154 165 165 175 180 172 182 188 195 204 207 210 214 220 228 227 247 265 250 236 239 227 219 222 215 218 218 228 245 246 235 229 193 194 206 219 344 4 353
67 87 126 140 171 164 170 170 172 174 189 187 173 183 194 193 215 212 205 228 249 231 236 248 254 232 230 220 220 221 225 237 250 256 231 236 236 210 216 231 265 294 329
90 98 124 128 131 141 149 154 163 170 170 172 189 187 181 187 193 208 215 233 228 243 241 237 237 259 236 228 229 232 237 248 259 262 256 260 253 232 229 241 248 274 296
87 98 107 125 133 145 142 147 154 159 165 176 189 198 198 181 185 185 207 218 242 214 220 232 246 257 239 236 235 243 248 249 252 256 262 260 255 242 232 237 248 261 273
91 94 127 125 118 138 148 159 156 150 145 154 173 175 172 178 189 192 195 201 207 211 227 226 240 256 253 259 239 247 248 247 246 255 259 257 256 248 245 245 248 255 266
108 104 105 114 120 122 137 159 176 164 159 154 152 155 170 185 187 194 190 193 221 239 248 240 246 251 247 253 251 247 245 248 249 251 269 262 258 258 254 250 254 252 256
128 123 120 119 119 116 112 108 125 158 153 144 136 149 146 173 176 199 221 231 240 261 271 270 266 256 254 251 250 255 249 249 244 242 251 262 263 261 257 252 251 255 255
126 125 124 122 120 128 125 128 134 138 146 149 151 149 159 167 185 189 203 236 267 275 274 269 264 262 261 259 257 253 248 239 238 240 243 257 261 262 259 250 247 245 245
132 126 126 135 137 134 133 139 134 149 153 159 162 160 165 189 217 245 263 267 267 265 265 267 268 266 263 257 250 248 246 250 246 248 248 249 259 260 271 256 247 247 247
Wind_Speed_850mb
33 30 29 23 24 22 39 57 61 50 47 47 47 37 27 24 22 21 20 20 20 22 21 12 3 5 8 10 7 5 5 15 22 31 28 30 36 40 41 38 35 31 30
28 27 22 29 25 29 37 39 41 47 43 40 47 38 29 22 22 24 22 24 23 19 15 8 3 2 6 9 13 10 8 15 26 27 29 34 36 38 38 38 38 33 33
27 35 24 24 45 31 24 33 30 41 41 31 48 48 29 25 23 26 27 24 21 16 12 9 10 10 13 15 9 7 10 19 27 28 28 34 37 36 40 38 31 29 36
22 20 29 25 25 33 37 37 35 52 46 48 52 46 38 34 29 29 26 22 18 15 11 6 4 4 8 4 7 13 17 19 21 29 29 32 35 34 31 34 37 43 41
20 17 19 20 28 24 32 48 54 52 55 61 56 46 45 39 35 31 28 23 17 14 11 6 9 10 12 19 14 13 19 27 30 32 31 31 31 29 31 33 36 35 32
20 26 18 18 24 29 37 38 46 65 54 58 59 54 45 42 36 33 26 21 16 13 11 8 5 5 7 3 8 6 19 26 31 27 24 25 27 24 29 31 26 29 29
17 23 17 18 24 31 33 49 30 74 67 67 66 53 43 42 37 34 28 21 16 13 14 12 8 2 3 2 5 12 17 23 24 21 17 23 21 24 21 22 25 24 22
14 17 19 20 25 38 21 46 40 48 57 75 69 49 32 36 39 36 34 25 18 16 21 10 10 5 4 7 10 13 17 19 18 14 15 20 22 21 18 15 17 20 19
10 15 17 24 25 33 30 45 36 41 67 74 69 35 23 13 39 32 37 27 28 24 22 14 9 7 3 8 16 20 17 14 11 10 11 15 17 13 9 12 18 24 23
13 18 18 17 34 24 43 41 37 40 52 70 61 49 29 39 24 19 31 35 31 23 20 14 12 8 7 11 16 16 13 10 10 10 7 8 14 12 12 13 15 15 22
15 9 19 12 34 40 50 46 56 48 46 66 64 50 35 48 29 36 35 34 29 25 21 17 12 13 13 13 15 11 10 8 13 13 7 8 15 11 7 10 12 14 27
8 14 13 20 39 54 57 50 57 56 60 55 55 50 45 40 40 23 24 36 30 25 24 20 14 15 12 13 11 7 4 9 11 9 8 9 14 11 5 8 16 19 24
12 7 11 21 46 48 59 51 59 47 42 53 54 66 44 28 27 19 18 30 24 23 21 16 13 12 13 12 8 6 6 9 10 10 6 5 10 9 5 8 15 18 22
9 10 10 22 45 47 53 59 48 46 38 43 46 60 52 37 24 13 14 15 16 13 17 12 15 17 14 11 11 11 10 4 14 9 2 6 10 8 2 8 12 17 23
9 8 8 23 41 41 52 46 49 47 38 38 43 46 58 45 27 19 14 14 9 11 17 19 16 12 14 15 15 10 8 4 7 7 3 1 3 7 6 4 9 17 23
4 7 8 32 46 46 48 44 37 39 40 50 50 44 50 44 34 28 18 24 20 16 11 16 16 17 21 17 14 12 7 5 7 9 5 2 7 9 8 4 8 14 19
6 6 20 37 37 45 40 41 33 30 45 41 38 37 38 29 38 29 24 22 20 20 15 19 21 23 20 19 18 13 10 11 8 7 10 9 15 13 9 3 3 9 17
19 17 23 37 39 41 41 42 32 31 37 34 37 38 35 38 34 33 30 20 20 20 20 19 20 23 22 24 19 21 17 14 12 13 13 12 14 15 12 7 2 9 10
24 30 31 36 28 34 32 36 29 26 30 27 34 35 33 32 26 37 27 21 17 17 16 17 18 23 25 26 26 27 22 19 16 16 11 13 11 16 16 9 4 8 9
28 35 47 45 39 41 35 34 29 26 24 25 27 27 22 26 25 26 28 20 16 13 13 13 14 15 24 25 29 29 24 21 20 19 17 15 13 13 14 12 11 11 10
28 32 40 42 33 40 36 36 31 26 27 27 25 28 26 24 22 20 19 18 16 13 12 14 16 16 19 27 28 27 26 24 24 26 23 21 19 16 17 18 16 15 12
31 31 30 31 32 34 26 24 21 31 26 21 15 22 23 21 18 16 13 15 17 16 15 15 15 16 16 18 24 25 31 33 32 30 30 29 25 23 22 19 18 16 14
34 37 39 33 28 23 15 16 13 17 16 19 20 18 19 14 14 13 12 11 12 12 12 15 19 21 20 21 25 30 37 36 36 29 24 30 30 27 27 22 18 17 16
40 40 38 35 31 32 28 24 20 23 26 22 19 17 13 10 9 8 8 9 10 11 14 19 20 22 24 26 30 29 27 35 37 38 33 32 29 31 28 26 22 19 18
35 33 32 28 22 23 26 25 24 25 24 24 22 21 19 16 15 13 10 10 11 14 16 19 22 24 26 28 30 32 36 42 45 44 40 35 33 31 31 29 29 27 22
24 21 17 14 11 15 16 18 17 17 18 17 15 12 10 9 9 9 13 16 18 21 23 24 26 26 30 32 31 33 37 44 47 39 40 42 36 33 20 28 35 36 32
Wind_Direction_850mb
246 243 236 214 222 219 220 223 205 198 191 173 166 164 168 179 175 157 161 167 156 153 154 157 126 11 3 333 352 85 57 11 358 351 357 351 348 347 348 355 0 8 6
245 242 237 216 196 180 174 184 180 181 178 182 162 164 169 169 180 169 156 162 159 167 169 182 204 53 31 90 124 112 3 349 346 357 354 348 350 354 4 11 14 13 25
242 233 230 238 225 243 243 215 172 179 184 180 180 164 162 168 169 167 163 157 157 158 151 157 142 126 99 82 72 315 320 337 344 351 354 357 354 12 20 18 19 23 47
231 225 225 235 230 238 240 216 216 207 200 199 178 168 169 168 167 163 155 156 149 145 149 172 263 257 225 150 37 355 349 349 344 348 358 360 5 32 23 33 36 56 48
224 214 200 208 212 233 229 225 209 203 188 175 166 171 176 167 167 156 158 157 155 152 157 200 270 265 251 238 227 332 345 352 349 350 0 5 36 38 41 37 46 44 38
225 211 198 207 208 211 221 203 199 203 186 181 170 179 172 173 168 166 164 165 166 167 186 199 268 253 242 204 194 317 345 338 334 355 3 23 41 36 47 46 52 32 38
227 230 205 198 203 199 247 217 206 188 191 178 176 177 175 175 170 171 174 168 184 206 239 201 288 226 323 53 47 349 329 317 326 351 11 39 44 64 63 59 48 27 36
221 235 219 200 195 197 218 198 196 182 185 176 174 161 143 159 178 179 176 180 189 204 190 210 287 248 327 44 355 317 312 316 337 4 19 44 51 51 63 54 29 27 26
218 227 231 209 193 189 207 199 175 172 178 178 180 169 146 159 153 161 173 184 194 200 203 236 231 248 312 329 317 320 324 332 351 3 36 53 68 55 47 43 35 36 49
198 220 226 225 193 196 209 202 175 183 191 178 176 180 177 175 160 153 173 181 186 198 214 241 242 260 275 308 316 333 344 1 356 8 12 65 96 69 63 45 38 46 39
190 223 223 212 191 205 201 192 196 201 196 182 188 177 174 179 175 174 183 193 201 208 229 233 228 243 267 310 309 326 355 19 2 354 344 112 113 109 90 62 54 60 50
168 209 239 242 196 208 200 193 201 206 190 196 198 193 188 183 189 184 181 191 203 215 224 229 236 255 274 291 289 318 335 350 344 330 351 97 123 131 125 74 66 64 40
185 212 278 236 205 201 195 199 204 197 204 200 203 202 192 191 189 180 175 169 186 206 217 230 234 243 255 256 267 292 276 338 328 325 22 125 141 165 176 78 54 40 25
213 244 282 211 200 193 192 198 207 209 209 217 208 196 198 201 175 174 182 180 164 189 212 223 234 244 241 240 238 250 267 342 344 333 305 170 176 174 134 55 44 33 27
245 307 302 186 184 181 182 190 199 201 198 206 202 208 207 214 211 214 209 219 235 221 235 238 226 254 220 231 246 248 245 354 310 296 263 212 195 186 128 95 42 31 31
315 299 186 168 160 170 180 181 192 199 208 223 203 200 211 209 210 214 225 241 242 239 241 217 228 230 216 221 230 240 246 296 293 280 277 217 186 162 169 131 43 29 32
23 75 154 156 167 170 172 178 185 195 200 189 188 193 196 216 211 213 230 230 230 250 244 245 231 221 219 227 226 216 231 237 260 268 265 233 190 180 192 169 37 24 26
56 89 143 146 154 165 165 175 180 172 182 188 195 204 207 210 214 220 228 227 247 265 250 236 239 227 219 222 215 218 218 228 245 246 235 229 193 194 206 219 344 4 353
67 87 126 140 171 164 170 170 172 174 189 187 173 183 194 193 215 212 205 228 249 231 236 248 254 232 230 220 220 221 225 237 250 256 231 236 236 210 216 231 265 294 329
90 98 124 128 131 141 149 154 163 170 170 172 189 187 181 187 193 208 215 233 228 243 241 237 237 259 236 228 229 232 237 248 259 262 256 260 253 232 229 241 248 274 296
87 98 107 125 133 145 142 147 154 159 165 176 189 198 198 181 185 185 207 218 242 214 220 232 246 257 239 236 235 243 248 249 252 256 262 260 255 242 232 237 248 261 273
91 94 127 125 118 138 148 159 156 150 145 154 173 175 172 178 189 192 195 201 207 211 227 226 240 256 253 259 239 247 248 247 246 255 259 257 256 248 245 245 248 255 266
108 104 105 114 120 122 137 159 176 164 159 154 152 155 170 185 187 194 190 193 221 239 248 240 246 251 247 253 251 247 245 248 249 251 269 262 258 258 254 250 254 252 256
128 123 120 119 119 116 112 108 125 158 153 144 136 149 146 173 176 199 221 231 240 261 271 270 266 256 254 251 250 255 249 249 244 242 251 262 263 261 257 252 251 255 255
126 125 124 122 120 128 125 128 134 138 146 149 151 149 159 167 185 189 203 236 267 275 274 269 264 262 261 259 257 253 248 239 238 240 243 257 261 262 259 250 247 245 245
132 126 126 135 137 134 133 139 134 149 153 159 162 160 165 189 217 245 263 267 267 265 265 267 268 266 263 257 250 248 246 250 246 248 248 249 259 260 271 256 247 247 247